,,PA_Meas_PMT16A,,PR_Meas_QMR101_102,,RH_Meas_QMH101,,SR_Meas_QMS101,,TA_Meas_QMH101,,GenWind,,GenWind,
time,status,PA,status,PR,status,RH,status,SR,status,TA,status,DirAvg,status,SpdAvg,
2014-09-19, 00:00:04,VALID,918.341,VALID,0,VALID,74.9458,VALID,0,VALID,22.7038,VALID,162,VALID,0.372656,
2014-09-19, 00:01:04,VALID,918.307,VALID,0,VALID,75.0449,VALID,0.107441,VALID,22.7233,VALID,187,VALID,0,
2014-09-19, 00:02:04,VALID,918.297,VALID,0,VALID,75.1669,VALID,0.107441,VALID,22.725,VALID,158,VALID,0.163672,
2014-09-19, 00:03:04,VALID,918.29,VALID,0,VALID,75.1669,VALID,0,VALID,22.6843,VALID,133,VALID,0,
2014-09-19, 00:04:04,VALID,918.268,VALID,0,VALID,74.6637,VALID,0,VALID,22.6665,VALID,123,VALID,0.953516,
2014-09-19, 00:05:04,VALID,918.265,VALID,0,VALID,74.5723,VALID,0,VALID,22.7445,VALID,183,VALID,0,
2014-09-19, 00:06:04,VALID,918.226,VALID,0,VALID,74.214,VALID,0.107441,VALID,22.7836,VALID,165,VALID,0,
2014-09-19, 00:07:04,VALID,918.15,VALID,0,VALID,73.6651,VALID,0,VALID,22.8226,VALID,187,VALID,0,
2014-09-19, 00:08:04,VALID,918.21,VALID,0,VALID,74.9763,VALID,0,VALID,22.8812,VALID,58,VALID,1.80508,
2014-09-19, 00:09:04,VALID,918.172,VALID,0,VALID,75.3575,VALID,0.107441,VALID,22.7836,VALID,75,VALID,0.254687,
2014-09-19, 00:10:04,VALID,918.136,VALID,0,VALID,75.8835,VALID,0,VALID,22.6665,VALID,79,VALID,0,
2014-09-19, 00:11:04,VALID,918.128,VALID,0,VALID,76.1198,VALID,0,VALID,22.5884,VALID,139,VALID,0.769531,
2014-09-19, 00:12:05,VALID,918.11,VALID,0,VALID,76.4934,VALID,0,VALID,22.5103,VALID,132,VALID,1.14063,
2014-09-19, 00:13:04,VALID,918.084,VALID,0,VALID,77.5454,VALID,0,VALID,22.4306,VALID,126,VALID,0.00585938,
2014-09-19, 00:14:05,VALID,918.056,VALID,0,VALID,77.3396,VALID,0,VALID,22.3542,VALID,167,VALID,0.123828,
2014-09-19, 00:15:05,VALID,918.004,VALID,0,VALID,76.5925,VALID,0,VALID,22.3933,VALID,105,VALID,2.90547,
2014-09-19, 00:16:05,VALID,918.037,VALID,0,VALID,76.4095,VALID,0,VALID,22.4713,VALID,135,VALID,1.10195,
2014-09-19, 00:17:05,VALID,918.018,VALID,0,VALID,76.6382,VALID,0,VALID,22.4501,VALID,141,VALID,0.491797,
2014-09-19, 00:18:05,VALID,917.958,VALID,0,VALID,75.914,VALID,0.107441,VALID,22.5086,VALID,168,VALID,2.84258,
2014-09-19, 00:19:05,VALID,917.976,VALID,0,VALID,75.2584,VALID,0,VALID,22.6257,VALID,114,VALID,2.05234,
2014-09-19, 00:20:05,VALID,917.984,VALID,0,VALID,75.5328,VALID,0.107441,VALID,22.6665,VALID,151,VALID,0.122266,
2014-09-19, 00:21:05,VALID,917.928,VALID,0,VALID,75.6929,VALID,0,VALID,22.6257,VALID,157,VALID,0,
2014-09-19, 00:22:05,VALID,917.948,VALID,0,VALID,75.8911,VALID,0,VALID,22.6079,VALID,147,VALID,0,
2014-09-19, 00:23:05,VALID,917.874,VALID,0,VALID,74.4503,VALID,0,VALID,22.6079,VALID,164,VALID,0.617969,
2014-09-19, 00:24:05,VALID,917.869,VALID,0,VALID,74.9306,VALID,0,VALID,22.7055,VALID,124,VALID,2.2832,
2014-09-19, 00:25:05,VALID,917.885,VALID,0,VALID,75.4185,VALID,0.107441,VALID,22.6843,VALID,138,VALID,0.552344,
2014-09-19, 00:26:05,VALID,917.845,VALID,0,VALID,75.5709,VALID,0,VALID,22.647,VALID,145,VALID,0.788281,
2014-09-19, 00:27:05,VALID,917.786,VALID,0,VALID,75.548,VALID,0,VALID,22.6274,VALID,164,VALID,0.135156,
2014-09-19, 00:28:05,VALID,917.771,VALID,0,VALID,76.0512,VALID,0,VALID,22.6274,VALID,133,VALID,0.0015625,
2014-09-19, 00:29:05,VALID,917.707,VALID,0,VALID,75.9521,VALID,0,VALID,22.6079,VALID,119,VALID,0.301562,
2014-09-19, 00:30:05,VALID,917.681,VALID,0,VALID,75.975,VALID,0.107441,VALID,22.5884,VALID,139,VALID,0.459766,
2014-09-19, 00:31:05,VALID,917.645,VALID,0,VALID,75.8987,VALID,0,VALID,22.5477,VALID,154,VALID,2.4293,
2014-09-19, 00:32:05,VALID,917.633,VALID,0,VALID,76.6992,VALID,0.107441,VALID,22.5494,VALID,130,VALID,0.849609,
2014-09-19, 00:33:05,VALID,917.565,VALID,0,VALID,76.6687,VALID,0.107441,VALID,22.4891,VALID,157,VALID,0.13125,
2014-09-19, 00:34:05,VALID,917.566,VALID,0,VALID,76.4552,VALID,0.107441,VALID,22.4713,VALID,168,VALID,0.980078,
2014-09-19, 00:35:05,VALID,917.557,VALID,0,VALID,76.5772,VALID,0,VALID,22.4713,VALID,162,VALID,1.6418,
2014-09-19, 00:36:05,VALID,917.545,VALID,0,VALID,76.3942,VALID,0.107441,VALID,22.4518,VALID,139,VALID,1.84844,
2014-09-19, 00:37:05,VALID,917.533,VALID,0,VALID,76.3866,VALID,0,VALID,22.5103,VALID,162,VALID,1.39453,
2014-09-19, 00:38:05,VALID,917.497,VALID,0,VALID,76.7068,VALID,0.107441,VALID,22.4891,VALID,120,VALID,1.75117,
2014-09-19, 00:39:05,VALID,917.48,VALID,0,VALID,76.4324,VALID,0,VALID,22.4696,VALID,162,VALID,1.89414,
2014-09-19, 00:40:05,VALID,917.508,VALID,0,VALID,76.8974,VALID,0,VALID,22.4323,VALID,133,VALID,0.374219,
2014-09-19, 00:41:05,VALID,917.494,VALID,0,VALID,77.4387,VALID,0,VALID,22.3933,VALID,105,VALID,0.0726563,
2014-09-19, 00:42:05,VALID,917.426,VALID,0,VALID,77.4539,VALID,0,VALID,22.3525,VALID,66,VALID,0.346875,
2014-09-19, 00:43:05,VALID,917.448,VALID,0,VALID,77.5149,VALID,0.107441,VALID,22.3135,VALID,134,VALID,1.89844,
2014-09-19, 00:44:05,VALID,917.443,VALID,0,VALID,77.3319,VALID,0,VALID,22.3737,VALID,141,VALID,1.83086,
2014-09-19, 00:45:05,VALID,917.433,VALID,0,VALID,77.1109,VALID,0,VALID,22.4128,VALID,103,VALID,1.6418,
2014-09-19, 00:46:05,VALID,917.381,VALID,0,VALID,77.3014,VALID,0.107441,VALID,22.3933,VALID,105,VALID,1.58047,
2014-09-19, 00:47:05,VALID,917.402,VALID,0,VALID,77.37,VALID,0.107441,VALID,22.372,VALID,100,VALID,0,
2014-09-19, 00:48:05,VALID,917.349,VALID,0,VALID,77.5149,VALID,0,VALID,22.3542,VALID,67,VALID,1.35938,
2014-09-19, 00:49:05,VALID,917.327,VALID,0,VALID,77.2786,VALID,0,VALID,22.3347,VALID,129,VALID,1.94258,
2014-09-19, 00:50:05,VALID,917.333,VALID,0,VALID,77.4005,VALID,0,VALID,22.3347,VALID,125,VALID,2.18555,
2014-09-19, 00:51:05,VALID,917.364,VALID,0,VALID,76.9431,VALID,0,VALID,22.3933,VALID,90,VALID,2.63789,
2014-09-19, 00:52:05,VALID,917.335,VALID,0,VALID,76.8212,VALID,0.107441,VALID,22.4518,VALID,114,VALID,4.40625,
2014-09-19, 00:53:05,VALID,917.338,VALID,0,VALID,76.4019,VALID,0,VALID,22.4908,VALID,76,VALID,1.66992,
2014-09-19, 00:54:05,VALID,917.277,VALID,0,VALID,76.3714,VALID,0,VALID,22.5103,VALID,115,VALID,1.5543,
2014-09-19, 00:55:05,VALID,917.316,VALID,0,VALID,76.1884,VALID,0,VALID,22.5494,VALID,114,VALID,1.79727,
2014-09-19, 00:56:05,VALID,917.307,VALID,0,VALID,76.4476,VALID,0,VALID,22.5103,VALID,89,VALID,1.26133,
2014-09-19, 00:57:05,VALID,917.271,VALID,0,VALID,76.8669,VALID,0,VALID,22.4908,VALID,45,VALID,3.50352,
2014-09-19, 00:58:05,VALID,917.308,VALID,0,VALID,76.905,VALID,0,VALID,22.4323,VALID,104,VALID,0.479688,
2014-09-19, 00:59:05,VALID,917.328,VALID,0,VALID,77.2023,VALID,0,VALID,22.3933,VALID,111,VALID,1.15273,
2014-09-19, 01:00:05,VALID,917.34,VALID,0,VALID,77.3014,VALID,0,VALID,22.333,VALID,101,VALID,1.98984,
2014-09-19, 01:01:05,VALID,917.291,VALID,0,VALID,77.4844,VALID,0.107441,VALID,22.3347,VALID,77,VALID,0.00351562,
2014-09-19, 01:02:05,VALID,917.279,VALID,0,VALID,77.5454,VALID,0,VALID,22.3169,VALID,132,VALID,0.775781,
2014-09-19, 01:03:05,VALID,917.274,VALID,0,VALID,77.1413,VALID,0,VALID,22.395,VALID,97,VALID,2.02031,
2014-09-19, 01:04:05,VALID,917.258,VALID,0,VALID,76.2189,VALID,0,VALID,22.434,VALID,120,VALID,2.70156,
2014-09-19, 01:05:05,VALID,917.269,VALID,0,VALID,76.2418,VALID,0,VALID,22.4925,VALID,113,VALID,0.663281,
2014-09-19, 01:06:05,VALID,917.259,VALID,0,VALID,76.3638,VALID,0,VALID,22.4925,VALID,130,VALID,1.44687,
2014-09-19, 01:07:05,VALID,917.229,VALID,0,VALID,76.6916,VALID,0,VALID,22.434,VALID,141,VALID,0.0617188,
2014-09-19, 01:08:05,VALID,917.25,VALID,0,VALID,77.2252,VALID,0,VALID,22.395,VALID,109,VALID,0.819922,
2014-09-19, 01:09:05,VALID,917.169,VALID,0,VALID,76.9889,VALID,0,VALID,22.3559,VALID,66,VALID,2.67773,
2014-09-19, 01:10:05,VALID,917.163,VALID,0,VALID,77.1642,VALID,0,VALID,22.3559,VALID,170,VALID,0.194141,
2014-09-19, 01:11:05,VALID,917.143,VALID,0,VALID,77.3167,VALID,0,VALID,22.3364,VALID,127,VALID,0.371875,
2014-09-19, 01:12:05,VALID,917.072,VALID,0,VALID,77.2023,VALID,0,VALID,22.3169,VALID,153,VALID,0,
2014-09-19, 01:13:05,VALID,917.102,VALID,0,VALID,77.1947,VALID,0,VALID,22.2779,VALID,84,VALID,0,
2014-09-19, 01:14:05,VALID,917.036,VALID,0,VALID,76.9355,VALID,0,VALID,22.3169,VALID,108,VALID,0.641406,
2014-09-19, 01:15:05,VALID,917.025,VALID,0,VALID,76.6763,VALID,0,VALID,22.3364,VALID,112,VALID,4.1293,
2014-09-19, 01:16:05,VALID,917.032,VALID,0,VALID,76.7449,VALID,0,VALID,22.3754,VALID,119,VALID,0,
2014-09-19, 01:17:05,VALID,916.971,VALID,0,VALID,76.5391,VALID,0,VALID,22.3737,VALID,125,VALID,0.703906,
2014-09-19, 01:18:05,VALID,916.936,VALID,0,VALID,76.4247,VALID,0.107441,VALID,22.4128,VALID,123,VALID,0,
2014-09-19, 01:19:05,VALID,916.901,VALID,0,VALID,76.8898,VALID,0,VALID,22.3737,VALID,86,VALID,0,
2014-09-19, 01:20:05,VALID,916.908,VALID,0,VALID,76.5848,VALID,0,VALID,22.3542,VALID,80,VALID,0.382031,
2014-09-19, 01:21:05,VALID,916.942,VALID,0,VALID,76.5238,VALID,0,VALID,22.3347,VALID,81,VALID,0,
2014-09-19, 01:22:05,VALID,916.924,VALID,0,VALID,76.8517,VALID,0,VALID,22.2762,VALID,128,VALID,0.00195313,
2014-09-19, 01:23:05,VALID,916.92,VALID,0,VALID,77.1032,VALID,0,VALID,22.2567,VALID,130,VALID,0,
2014-09-19, 01:24:05,VALID,916.874,VALID,0,VALID,77.0346,VALID,0.107441,VALID,22.2371,VALID,130,VALID,0,
2014-09-19, 01:25:05,VALID,916.906,VALID,0,VALID,77.2328,VALID,0,VALID,22.2176,VALID,171,VALID,0,
2014-09-19, 01:26:05,VALID,916.859,VALID,0,VALID,77.6674,VALID,0,VALID,22.1981,VALID,164,VALID,0,
2014-09-19, 01:27:05,VALID,916.899,VALID,0,VALID,78.0562,VALID,0,VALID,22.1201,VALID,164,VALID,0,
2014-09-19, 01:28:05,VALID,916.896,VALID,0,VALID,78.4221,VALID,0,VALID,22.0242,VALID,164,VALID,0,
2014-09-19, 01:29:05,VALID,916.917,VALID,0,VALID,78.4145,VALID,0,VALID,21.964,VALID,83,VALID,1.24727,
2014-09-19, 01:30:05,VALID,916.869,VALID,0,VALID,78.1019,VALID,0,VALID,22.042,VALID,85,VALID,0.0195313,
2014-09-19, 01:31:05,VALID,916.871,VALID,0,VALID,77.0346,VALID,0,VALID,22.1005,VALID,59,VALID,2.38672,
2014-09-19, 01:32:05,VALID,916.818,VALID,0,VALID,77.088,VALID,0,VALID,22.1591,VALID,73,VALID,0.669141,
2014-09-19, 01:33:05,VALID,916.847,VALID,0,VALID,77.492,VALID,0,VALID,22.1413,VALID,88,VALID,0,
2014-09-19, 01:34:05,VALID,916.817,VALID,0,VALID,77.8122,VALID,0,VALID,22.081,VALID,90,VALID,0,
2014-09-19, 01:35:05,VALID,916.769,VALID,0,VALID,78.2315,VALID,0,VALID,22.0225,VALID,96,VALID,0,
2014-09-19, 01:36:05,VALID,916.745,VALID,0,VALID,78.14,VALID,0,VALID,21.964,VALID,160,VALID,0,
2014-09-19, 01:37:05,VALID,916.734,VALID,0,VALID,78.6432,VALID,0,VALID,21.964,VALID,104,VALID,0.951172,
2014-09-19, 01:38:05,VALID,916.748,VALID,0,VALID,78.9938,VALID,0,VALID,21.9071,VALID,101,VALID,0.0105469,
2014-09-19, 01:39:05,VALID,916.687,VALID,0,VALID,77.9723,VALID,0,VALID,21.9835,VALID,112,VALID,1.17109,
2014-09-19, 01:40:05,VALID,916.708,VALID,0,VALID,78.7118,VALID,0,VALID,21.9249,VALID,73,VALID,0,
2014-09-19, 01:41:05,VALID,916.781,VALID,0,VALID,79.1311,VALID,0,VALID,21.8876,VALID,72,VALID,0,
2014-09-19, 01:42:05,VALID,916.753,VALID,0,VALID,79.3445,VALID,0,VALID,21.7883,VALID,72,VALID,0,
2014-09-19, 01:43:05,VALID,916.811,VALID,0,VALID,79.253,VALID,0,VALID,21.7705,VALID,74,VALID,0,
2014-09-19, 01:44:05,VALID,916.803,VALID,0,VALID,78.6584,VALID,0,VALID,21.8079,VALID,81,VALID,0,
2014-09-19, 01:45:05,VALID,916.814,VALID,0,VALID,78.5669,VALID,0,VALID,21.9071,VALID,80,VALID,0.547266,
2014-09-19, 01:46:05,VALID,916.811,VALID,0,VALID,78.0333,VALID,0,VALID,21.9656,VALID,44,VALID,0.478906,
2014-09-19, 01:47:05,VALID,916.826,VALID,0,VALID,77.6445,VALID,0,VALID,22.0437,VALID,78,VALID,0.162109,
2014-09-19, 01:48:05,VALID,916.798,VALID,0,VALID,77.6216,VALID,0,VALID,22.0827,VALID,10,VALID,0,
2014-09-19, 01:49:05,VALID,916.843,VALID,0,VALID,77.8656,VALID,0,VALID,22.081,VALID,10,VALID,0,
2014-09-19, 01:50:05,VALID,916.826,VALID,0,VALID,77.6521,VALID,0,VALID,22.1022,VALID,10,VALID,0,
2014-09-19, 01:51:05,VALID,916.813,VALID,0,VALID,77.5683,VALID,0.107441,VALID,22.1022,VALID,350,VALID,0.125,
2014-09-19, 01:52:05,VALID,916.785,VALID,0,VALID,77.8656,VALID,0,VALID,22.1005,VALID,103,VALID,0.0953125,
2014-09-19, 01:53:05,VALID,916.852,VALID,0,VALID,78.4221,VALID,0,VALID,22.0047,VALID,64,VALID,0,
2014-09-19, 01:54:05,VALID,916.791,VALID,0,VALID,78.3535,VALID,0,VALID,21.9071,VALID,61,VALID,0,
2014-09-19, 01:55:05,VALID,916.776,VALID,0,VALID,78.6737,VALID,0,VALID,21.8859,VALID,45,VALID,0,
2014-09-19, 01:56:05,VALID,916.773,VALID,0,VALID,78.9786,VALID,0,VALID,21.8876,VALID,106,VALID,0.0917969,
2014-09-19, 01:57:05,VALID,916.772,VALID,0,VALID,79.3598,VALID,0,VALID,21.751,VALID,173,VALID,0.0148437,
2014-09-19, 01:58:05,VALID,916.778,VALID,0,VALID,79.3445,VALID,0,VALID,21.751,VALID,173,VALID,0,
2014-09-19, 01:59:05,VALID,916.743,VALID,0,VALID,79.2912,VALID,0,VALID,21.7315,VALID,179,VALID,0,
2014-09-19, 02:00:05,VALID,916.728,VALID,0,VALID,79.2835,VALID,0,VALID,21.712,VALID,179,VALID,0,
2014-09-19, 02:01:05,VALID,916.739,VALID,0,VALID,79.0853,VALID,0,VALID,21.7705,VALID,185,VALID,0,
2014-09-19, 02:02:05,VALID,916.722,VALID,0,VALID,79.1082,VALID,0,VALID,21.7705,VALID,184,VALID,0,
2014-09-19, 02:03:05,VALID,916.706,VALID,0,VALID,78.8947,VALID,0,VALID,21.79,VALID,184,VALID,0,
2014-09-19, 02:04:05,VALID,916.712,VALID,0,VALID,78.8566,VALID,0,VALID,21.79,VALID,182,VALID,0,
2014-09-19, 02:05:05,VALID,916.763,VALID,0,VALID,78.7728,VALID,0,VALID,21.7705,VALID,125,VALID,0,
2014-09-19, 02:06:05,VALID,916.774,VALID,0,VALID,78.91,VALID,0,VALID,21.79,VALID,125,VALID,0.296094,
2014-09-19, 02:07:05,VALID,916.771,VALID,0,VALID,78.3458,VALID,0,VALID,21.8664,VALID,139,VALID,0.425781,
2014-09-19, 02:08:05,VALID,916.747,VALID,0,VALID,78.4145,VALID,0,VALID,21.9656,VALID,65,VALID,1.47461,
2014-09-19, 02:09:05,VALID,916.752,VALID,0,VALID,78.6889,VALID,0,VALID,21.8681,VALID,48,VALID,0.0667969,
2014-09-19, 02:10:05,VALID,916.723,VALID,0,VALID,78.6127,VALID,0,VALID,21.8485,VALID,85,VALID,0.0140625,
2014-09-19, 02:11:05,VALID,916.756,VALID,0,VALID,78.666,VALID,0,VALID,21.829,VALID,43,VALID,0.00585938,
2014-09-19, 02:12:05,VALID,916.701,VALID,0,VALID,78.7956,VALID,0,VALID,21.79,VALID,54,VALID,0,
2014-09-19, 02:13:05,VALID,916.716,VALID,0,VALID,78.8719,VALID,0,VALID,21.8095,VALID,43,VALID,0,
2014-09-19, 02:14:05,VALID,916.688,VALID,0,VALID,78.7956,VALID,0,VALID,21.8095,VALID,44,VALID,0,
2014-09-19, 02:15:05,VALID,916.669,VALID,0,VALID,79.4436,VALID,0,VALID,21.751,VALID,66,VALID,0,
2014-09-19, 02:16:05,VALID,916.678,VALID,0,VALID,80.0764,VALID,0,VALID,21.5949,VALID,65,VALID,0,
2014-09-19, 02:17:05,VALID,916.681,VALID,0,VALID,80.1755,VALID,0,VALID,21.5559,VALID,65,VALID,0,
2014-09-19, 02:18:05,VALID,916.658,VALID,0,VALID,79.6495,VALID,0,VALID,21.6534,VALID,66,VALID,0,
2014-09-19, 02:19:05,VALID,916.707,VALID,0,VALID,79.6495,VALID,0,VALID,21.712,VALID,66,VALID,0,
2014-09-19, 02:20:05,VALID,916.633,VALID,0,VALID,79.2225,VALID,0,VALID,21.6908,VALID,60,VALID,0,
2014-09-19, 02:21:05,VALID,916.664,VALID,0,VALID,79.1616,VALID,0,VALID,21.712,VALID,66,VALID,0,
2014-09-19, 02:22:05,VALID,916.651,VALID,0,VALID,79.0624,VALID,0,VALID,21.6908,VALID,83,VALID,0,
2014-09-19, 02:23:05,VALID,916.687,VALID,0,VALID,79.1997,VALID,0,VALID,21.712,VALID,83,VALID,0,
2014-09-19, 02:24:05,VALID,916.677,VALID,0,VALID,78.849,VALID,0,VALID,21.7331,VALID,83,VALID,0,
2014-09-19, 02:25:05,VALID,916.657,VALID,0,VALID,78.849,VALID,0,VALID,21.7705,VALID,82,VALID,0,
2014-09-19, 02:26:05,VALID,916.64,VALID,0,VALID,78.8947,VALID,0,VALID,21.751,VALID,84,VALID,0,
2014-09-19, 02:27:05,VALID,916.624,VALID,0,VALID,78.8109,VALID,0,VALID,21.7705,VALID,85,VALID,0,
2014-09-19, 02:28:05,VALID,916.583,VALID,0,VALID,78.8947,VALID,0,VALID,21.751,VALID,85,VALID,0,
2014-09-19, 02:29:05,VALID,916.572,VALID,0,VALID,79.2683,VALID,0,VALID,21.6924,VALID,84,VALID,0,
2014-09-19, 02:30:05,VALID,916.542,VALID,0,VALID,79.4589,VALID,0,VALID,21.6323,VALID,85,VALID,0,
2014-09-19, 02:31:05,VALID,916.532,VALID,0,VALID,79.6342,VALID,0,VALID,21.5949,VALID,85,VALID,0,
2014-09-19, 02:32:05,VALID,916.493,VALID,0,VALID,79.5961,VALID,0,VALID,21.5754,VALID,85,VALID,0,
2014-09-19, 02:33:05,VALID,916.47,VALID,0,VALID,79.9773,VALID,0,VALID,21.5168,VALID,85,VALID,0,
2014-09-19, 02:34:05,VALID,916.418,VALID,0,VALID,80.3661,VALID,0,VALID,21.4778,VALID,84,VALID,0,
2014-09-19, 02:35:05,VALID,916.481,VALID,0,VALID,80.6329,VALID,0,VALID,21.3998,VALID,85,VALID,0,
2014-09-19, 02:36:05,VALID,916.448,VALID,0,VALID,80.8082,VALID,0,VALID,21.3608,VALID,85,VALID,0,
2014-09-19, 02:37:05,VALID,916.428,VALID,0,VALID,81.2046,VALID,0,VALID,21.2632,VALID,85,VALID,0,
2014-09-19, 02:38:05,VALID,916.45,VALID,0,VALID,81.3037,VALID,0,VALID,21.2242,VALID,85,VALID,0,
2014-09-19, 02:39:05,VALID,916.468,VALID,0,VALID,81.2961,VALID,0,VALID,21.2242,VALID,85,VALID,0,
2014-09-19, 02:40:05,VALID,916.418,VALID,0,VALID,81.1436,VALID,0,VALID,21.2437,VALID,85,VALID,0,
2014-09-19, 02:41:05,VALID,916.423,VALID,0,VALID,81.4562,VALID,0,VALID,21.2453,VALID,85,VALID,0,
2014-09-19, 02:42:05,VALID,916.398,VALID,0,VALID,81.4105,VALID,0,VALID,21.1461,VALID,85,VALID,0,
2014-09-19, 02:43:05,VALID,916.352,VALID,0,VALID,81.2732,VALID,0,VALID,21.1657,VALID,67,VALID,0,
2014-09-19, 02:44:05,VALID,916.382,VALID,0,VALID,80.7243,VALID,0,VALID,21.2437,VALID,57,VALID,0,
2014-09-19, 02:45:05,VALID,916.375,VALID,0,VALID,80.7243,VALID,0,VALID,21.2843,VALID,57,VALID,0,
2014-09-19, 02:46:05,VALID,916.393,VALID,0,VALID,80.9912,VALID,0,VALID,21.2437,VALID,57,VALID,0,
2014-09-19, 02:47:05,VALID,916.362,VALID,0,VALID,81.1741,VALID,0,VALID,21.1852,VALID,57,VALID,0,
2014-09-19, 02:48:05,VALID,916.364,VALID,0,VALID,81.2656,VALID,0,VALID,21.1461,VALID,57,VALID,0,
2014-09-19, 02:49:05,VALID,916.375,VALID,0,VALID,81.5477,VALID,0,VALID,21.1266,VALID,57,VALID,0,
2014-09-19, 02:50:05,VALID,916.393,VALID,0,VALID,81.3419,VALID,0,VALID,21.1282,VALID,57,VALID,0,
2014-09-19, 02:51:05,VALID,916.414,VALID,0,VALID,81.2656,VALID,0,VALID,21.0876,VALID,58,VALID,0,
2014-09-19, 02:52:05,VALID,916.44,VALID,0,VALID,81.1055,VALID,0,VALID,21.1852,VALID,55,VALID,0,
2014-09-19, 02:53:05,VALID,916.443,VALID,0,VALID,81.1208,VALID,0,VALID,21.1461,VALID,55,VALID,0,
2014-09-19, 02:54:05,VALID,916.449,VALID,0,VALID,81.6163,VALID,0,VALID,21.0892,VALID,55,VALID,0,
2014-09-19, 02:55:05,VALID,916.463,VALID,0,VALID,81.9898,VALID,0,VALID,20.9901,VALID,55,VALID,0,
2014-09-19, 02:56:04,VALID,916.467,VALID,0,VALID,82.4167,VALID,0,VALID,20.9316,VALID,55,VALID,0,
2014-09-19, 02:57:04,VALID,916.502,VALID,0,VALID,82.6455,VALID,0,VALID,20.8941,VALID,55,VALID,0,
2014-09-19, 02:58:04,VALID,916.524,VALID,0,VALID,82.836,VALID,0,VALID,20.834,VALID,55,VALID,0,
2014-09-19, 02:59:04,VALID,916.515,VALID,0,VALID,82.7522,VALID,0,VALID,20.8535,VALID,55,VALID,0,
2014-09-19, 03:00:04,VALID,916.479,VALID,0,VALID,82.5921,VALID,0,VALID,20.912,VALID,55,VALID,0,
2014-09-19, 03:01:04,VALID,916.499,VALID,0,VALID,82.3329,VALID,0,VALID,20.9511,VALID,55,VALID,0,
2014-09-19, 03:02:04,VALID,916.555,VALID,0,VALID,82.3863,VALID,0,VALID,20.912,VALID,55,VALID,0,
2014-09-19, 03:03:04,VALID,916.525,VALID,0,VALID,82.836,VALID,0,VALID,20.834,VALID,57,VALID,0,
2014-09-19, 03:04:04,VALID,916.531,VALID,0,VALID,82.7827,VALID,0,VALID,20.8925,VALID,57,VALID,0,
2014-09-19, 03:05:04,VALID,916.551,VALID,0,VALID,82.1423,VALID,0,VALID,20.9917,VALID,57,VALID,0,
2014-09-19, 03:06:04,VALID,916.514,VALID,0,VALID,81.4791,VALID,0,VALID,21.0876,VALID,57,VALID,0,
2014-09-19, 03:07:04,VALID,916.496,VALID,0,VALID,80.9378,VALID,0,VALID,21.1657,VALID,85,VALID,0,
2014-09-19, 03:08:04,VALID,916.486,VALID,0,VALID,80.5185,VALID,0,VALID,21.2632,VALID,85,VALID,0,
2014-09-19, 03:09:04,VALID,916.475,VALID,0,VALID,80.5033,VALID,0,VALID,21.2827,VALID,85,VALID,0,
2014-09-19, 03:10:04,VALID,916.481,VALID,0,VALID,80.6786,VALID,0,VALID,21.2242,VALID,85,VALID,0,
2014-09-19, 03:11:04,VALID,916.464,VALID,0,VALID,80.6481,VALID,0,VALID,21.2047,VALID,108,VALID,0,
2014-09-19, 03:12:04,VALID,916.504,VALID,0,VALID,80.6329,VALID,0,VALID,21.2437,VALID,128,VALID,0.644141,
2014-09-19, 07:09:04,VALID,917.751,VALID,0,VALID,81.723,VALID,68.44,VALID,21.4177,VALID,148,VALID,0.673828,
2014-09-19, 07:10:04,VALID,917.697,VALID,0,VALID,80.6024,VALID,73.2749,VALID,21.5152,VALID,144,VALID,1.24766,
2014-09-19, 07:11:04,VALID,917.702,VALID,0,VALID,79.9315,VALID,72.4153,VALID,21.6323,VALID,121,VALID,0.14375,
2014-09-19, 07:12:04,VALID,917.728,VALID,0,VALID,80.2746,VALID,61.0266,VALID,21.7315,VALID,109,VALID,0,
2014-09-19, 07:13:04,VALID,917.665,VALID,0,VALID,80.023,VALID,60.167,VALID,21.7315,VALID,114,VALID,1.09961,
2014-09-19, 07:14:04,VALID,917.679,VALID,0,VALID,80.6329,VALID,66.8284,VALID,21.6924,VALID,140,VALID,0.144141,
2014-09-19, 07:15:04,VALID,917.666,VALID,0,VALID,80.4118,VALID,80.1511,VALID,21.6924,VALID,104,VALID,1.99609,
2014-09-19, 07:16:04,VALID,917.689,VALID,0,VALID,80.1602,VALID,90.1431,VALID,21.6924,VALID,121,VALID,1.39805,
2014-09-19, 07:17:04,VALID,917.672,VALID,0,VALID,80.0154,VALID,89.8208,VALID,21.7526,VALID,124,VALID,1.66641,
2014-09-19, 07:18:04,VALID,917.693,VALID,0,VALID,80.3737,VALID,91.8622,VALID,21.7705,VALID,140,VALID,1.03477,
2014-09-19, 07:19:04,VALID,917.721,VALID,0,VALID,80.5643,VALID,68.1177,VALID,21.79,VALID,141,VALID,0,
2014-09-19, 07:20:04,VALID,917.735,VALID,0,VALID,80.3889,VALID,75.5311,VALID,21.8485,VALID,142,VALID,0,
2014-09-19, 07:21:04,VALID,917.78,VALID,0,VALID,79.8248,VALID,70.4814,VALID,21.8681,VALID,123,VALID,0.2125,
2014-09-19, 07:22:04,VALID,917.722,VALID,0,VALID,79.8553,VALID,86.3827,VALID,21.829,VALID,105,VALID,1.04531,
2014-09-19, 07:23:04,VALID,917.739,VALID,0,VALID,80.3051,VALID,78.6469,VALID,21.8485,VALID,101,VALID,0.009375,
2014-09-19, 07:24:04,VALID,917.718,VALID,0,VALID,79.6723,VALID,111.631,VALID,21.8079,VALID,133,VALID,1.43789,
2014-09-19, 07:25:04,VALID,917.723,VALID,0,VALID,80.1755,VALID,117.541,VALID,21.8681,VALID,140,VALID,0.255859,
2014-09-19, 07:26:04,VALID,917.789,VALID,0,VALID,80.5414,VALID,116.789,VALID,21.8859,VALID,121,VALID,0,
2014-09-19, 07:27:04,VALID,917.793,VALID,0,VALID,80.0916,VALID,97.7714,VALID,21.9444,VALID,127,VALID,0.0628906,
2014-09-19, 07:28:04,VALID,917.777,VALID,0,VALID,79.1768,VALID,81.4404,VALID,21.964,VALID,136,VALID,0.757422,
2014-09-19, 07:29:04,VALID,917.828,VALID,0,VALID,79.619,VALID,91.6473,VALID,22.003,VALID,89,VALID,0.709766,
2014-09-19, 07:30:04,VALID,917.831,VALID,0,VALID,79.2683,VALID,92.7217,VALID,21.9818,VALID,130,VALID,0.437109,
2014-09-19, 07:31:04,VALID,917.832,VALID,0,VALID,79.5275,VALID,133.657,VALID,21.9835,VALID,116,VALID,0.464844,
2014-09-19, 07:32:04,VALID,917.818,VALID,0,VALID,78.9405,VALID,131.938,VALID,22.0208,VALID,128,VALID,0,
2014-09-19, 07:33:04,VALID,917.797,VALID,0,VALID,78.4831,VALID,94.7631,VALID,22.081,VALID,123,VALID,1.6625,
2014-09-19, 07:34:04,VALID,917.761,VALID,0,VALID,78.788,VALID,140.748,VALID,22.1201,VALID,72,VALID,0.953516,
2014-09-19, 07:35:04,VALID,917.741,VALID,0,VALID,79.1539,VALID,149.988,VALID,22.1396,VALID,103,VALID,1.44062,
2014-09-19, 07:36:04,VALID,917.753,VALID,0,VALID,79.3445,VALID,159.872,VALID,22.1201,VALID,86,VALID,0.699219,
2014-09-19, 07:37:04,VALID,917.688,VALID,0,VALID,79.1844,VALID,163.955,VALID,22.1396,VALID,121,VALID,1.83086,
2014-09-19, 07:38:04,VALID,917.721,VALID,0,VALID,79.314,VALID,168.253,VALID,22.2176,VALID,98,VALID,1.01328,
2014-09-19, 07:39:04,VALID,917.763,VALID,0,VALID,79.1158,VALID,180.716,VALID,22.2779,VALID,55,VALID,0.165625,
2014-09-19, 07:40:04,VALID,917.788,VALID,0,VALID,78.4678,VALID,184.476,VALID,22.3152,VALID,64,VALID,1.37344,
2014-09-19, 07:41:04,VALID,917.76,VALID,0,VALID,77.6216,VALID,181.683,VALID,22.395,VALID,103,VALID,1.41953,
2014-09-19, 07:42:04,VALID,917.797,VALID,0,VALID,77.37,VALID,193.287,VALID,22.434,VALID,112,VALID,1.78906,
2014-09-19, 07:43:04,VALID,917.792,VALID,0,VALID,77.1413,VALID,195.973,VALID,22.4908,VALID,54,VALID,1.57266,
2014-09-19, 07:44:04,VALID,917.848,VALID,0,VALID,77.0727,VALID,200.055,VALID,22.5884,VALID,64,VALID,0.00429688,
2014-09-19, 07:45:04,VALID,917.865,VALID,0,VALID,76.6763,VALID,209.08,VALID,22.6647,VALID,35,VALID,0.0820313,